Location: Bad Salzschlirf
(50.3750°N, 9.3000°E)
Time: 16:30:48
(UTC+02:00)

ISS - Pass Details

Date: 23 May 2020
Orbit: 417 x 420 km, 51.6° (Epoch: 25 May)

Event Time Altitude Azimuth Distance (km) Brightness Sun altitude
Rises 22:17:31 0° 271° (W) 2,363 0.8 -8.3°
Reaches altitude 10° 22:19:38 10° 274° (W) 1,500 -0.2 -8.5°
Maximum altitude 22:22:59 68° 358° (N) 454 -3.4 -8.9°
Drops below altitude 10° 22:26:21 10° 83° (E) 1,502 -1.3 -9.2°
Enters shadow 22:28:05 - 85° (E) 2,212 -0.4 -9.4°
